Time,TemperatureF,DewpointF,PressureIn,WindDirection,WindDirectionDegrees,WindSpeedMPH,WindSpeedGustMPH,Humidity,HourlyPrecipIn,Conditions,Clouds,dailyrainin,SolarRadiationWatts/m^2,SoftwareType,DateUTC
2013-03-21 00:02:00,35.0,32.0,-100.00,North,353,2.0,21.0,90,0.02,,,0.99,1.000000,,2013-03-21 04:02:00,
2013-03-21 00:10:00,34.0,32.0,-100.00,East,100,1.0,6.0,93,0.00,,,0.95,1.000000,,2013-03-21 04:10:00,
2013-03-21 00:43:00,34.0,32.0,-100.00,East,100,1.0,6.0,93,0.00,,,0.95,1.000000,,2013-03-21 04:43:00,
2013-03-21 00:53:00,34.0,32.0,-100.00,East,100,1.0,6.0,93,0.00,,,0.95,1.000000,,2013-03-21 04:53:00,
2013-03-21 01:02:00,34.0,32.0,-100.00,East,100,1.0,6.0,93,0.00,,,0.95,1.000000,,2013-03-21 05:02:00,
2013-03-21 01:10:00,33.0,32.0,-100.00,East,79,1.0,3.0,95,0.00,,,0.94,1.000000,,2013-03-21 05:10:00,
2013-03-21 01:33:00,33.0,32.0,-100.00,East,79,1.0,3.0,95,0.00,,,0.94,1.000000,,2013-03-21 05:33:00,
2013-03-21 01:44:00,33.0,32.0,-100.00,East,79,1.0,3.0,95,0.00,,,0.94,1.000000,,2013-03-21 05:44:00,
2013-03-21 01:52:00,33.0,32.0,-100.00,East,79,1.0,3.0,95,0.00,,,0.94,1.000000,,2013-03-21 05:52:00,
2013-03-21 02:02:00,33.0,32.0,-100.00,East,79,1.0,3.0,95,0.00,,,0.94,1.000000,,2013-03-21 06:02:00,
2013-03-21 02:10:00,33.0,32.0,-100.00,NNE,15,0.0,2.0,96,0.01,,,0.91,1.000000,,2013-03-21 06:10:00,
2013-03-21 02:32:00,33.0,32.0,-100.00,NNE,15,0.0,2.0,96,0.01,,,0.91,1.000000,,2013-03-21 06:32:00,
2013-03-21 02:42:00,33.0,32.0,-100.00,NNE,15,0.0,2.0,96,0.01,,,0.91,1.000000,,2013-03-21 06:42:00,
2013-03-21 02:52:00,33.0,32.0,-100.00,NNE,15,0.0,2.0,96,0.01,,,0.91,1.000000,,2013-03-21 06:52:00,
2013-03-21 03:02:00,33.0,32.0,-100.00,NNE,15,0.0,2.0,96,0.01,,,0.91,1.000000,,2013-03-21 07:02:00,
2013-03-21 03:10:00,32.0,31.0,-100.00,SSE,167,0.0,2.0,96,0.00,,,0.77,1.000000,,2013-03-21 07:10:00,
2013-03-21 03:32:00,32.0,31.0,-100.00,SSE,167,0.0,2.0,96,0.00,,,0.77,1.000000,,2013-03-21 07:32:00,
2013-03-21 03:42:00,32.0,31.0,-100.00,SSE,167,0.0,2.0,96,0.00,,,0.77,1.000000,,2013-03-21 07:42:00,
2013-03-21 03:52:00,32.0,31.0,-100.00,SSE,167,0.0,2.0,96,0.00,,,0.77,1.000000,,2013-03-21 07:52:00,
2013-03-21 04:01:00,32.0,31.0,-100.00,SSE,167,0.0,2.0,96,0.00,,,0.77,1.000000,,2013-03-21 08:01:00,
2013-03-21 04:10:00,33.0,32.0,-100.00,South,188,1.0,2.0,96,0.00,,,0.56,1.000000,,2013-03-21 08:10:00,
2013-03-21 04:42:00,33.0,32.0,-100.00,South,188,1.0,2.0,96,0.00,,,0.56,1.000000,,2013-03-21 08:42:00,
2013-03-21 04:52:00,33.0,32.0,-100.00,South,188,1.0,2.0,96,0.00,,,0.56,1.000000,,2013-03-21 08:52:00,
2013-03-21 05:02:00,33.0,32.0,-100.00,South,188,1.0,2.0,96,0.00,,,0.56,1.000000,,2013-03-21 09:02:00,
2013-03-21 05:10:00,32.0,31.0,-100.00,North,9,1.0,4.0,96,0.00,,,0.54,1.000000,,2013-03-21 09:10:00,
2013-03-21 05:33:00,32.0,31.0,-100.00,North,9,1.0,4.0,96,0.00,,,0.54,1.000000,,2013-03-21 09:33:00,
2013-03-21 05:43:00,32.0,31.0,-100.00,North,9,1.0,4.0,96,0.00,,,0.54,1.000000,,2013-03-21 09:43:00,
2013-03-21 05:53:00,32.0,31.0,-100.00,North,9,1.0,4.0,96,0.00,,,0.54,1.000000,,2013-03-21 09:53:00,
2013-03-21 06:02:00,32.0,31.0,-100.00,North,9,1.0,4.0,96,0.00,,,0.54,1.000000,,2013-03-21 10:02:00,
2013-03-21 06:10:00,32.0,31.0,-100.00,North,1,0.0,2.0,96,0.00,,,0.52,1.000000,,2013-03-21 10:10:00,
2013-03-21 06:43:00,32.0,31.0,-100.00,North,1,0.0,2.0,96,0.00,,,0.52,1.000000,,2013-03-21 10:43:00,
2013-03-21 06:53:00,32.0,31.0,-100.00,North,1,0.0,2.0,96,0.00,,,0.52,1.000000,,2013-03-21 10:53:00,
2013-03-21 07:02:00,32.0,31.0,-100.00,North,1,0.0,2.0,96,0.00,,,0.52,1.000000,,2013-03-21 11:02:00,
2013-03-21 07:10:00,32.0,31.0,-100.00,South,171,0.0,3.0,96,0.00,,,0.52,1.000000,,2013-03-21 11:10:00,
2013-03-21 07:33:00,32.0,31.0,-100.00,South,171,0.0,3.0,96,0.00,,,0.52,1.000000,,2013-03-21 11:33:00,
2013-03-21 07:43:00,32.0,31.0,-100.00,South,171,0.0,3.0,96,0.00,,,0.52,1.000000,,2013-03-21 11:43:00,
2013-03-21 07:53:00,32.0,31.0,-100.00,South,171,0.0,3.0,96,0.00,,,0.52,1.000000,,2013-03-21 11:53:00,
2013-03-21 08:10:00,32.0,31.0,-100.00,NNE,13,0.0,1.0,96,0.00,,,0.49,1.000000,,2013-03-21 12:10:00,
2013-03-21 08:33:00,32.0,31.0,-100.00,NNE,13,0.0,1.0,96,0.00,,,0.49,1.000000,,2013-03-21 12:33:00,
2013-03-21 08:43:00,32.0,31.0,-100.00,NNE,13,0.0,1.0,96,0.00,,,0.49,1.000000,,2013-03-21 12:43:00,
2013-03-21 08:52:00,32.0,31.0,-100.00,NNE,13,0.0,1.0,96,0.00,,,0.49,1.000000,,2013-03-21 12:52:00,
2013-03-21 09:02:00,32.0,31.0,-100.00,NNE,13,0.0,1.0,96,0.00,,,0.49,1.000000,,2013-03-21 13:02:00,
2013-03-21 09:10:00,32.0,31.0,-100.00,West,266,0.0,0.0,96,0.00,,,0.46,1.000000,,2013-03-21 13:10:00,
2013-03-21 09:32:00,32.0,31.0,-100.00,West,266,0.0,0.0,96,0.00,,,0.46,1.000000,,2013-03-21 13:32:00,
2013-03-21 09:42:00,32.0,31.0,-100.00,West,266,0.0,0.0,96,0.00,,,0.46,1.000000,,2013-03-21 13:42:00,
2013-03-21 09:52:00,32.0,31.0,-100.00,West,266,0.0,0.0,96,0.00,,,0.46,1.000000,,2013-03-21 13:52:00,
2013-03-21 10:02:00,32.0,31.0,-100.00,West,266,0.0,0.0,96,0.00,,,0.46,1.000000,,2013-03-21 14:02:00,
2013-03-21 10:10:00,32.0,31.0,-100.00,South,180,0.0,0.0,97,0.00,,,0.44,1.000000,,2013-03-21 14:10:00,
2013-03-21 10:42:00,32.0,31.0,-100.00,South,180,0.0,0.0,97,0.00,,,0.44,1.000000,,2013-03-21 14:42:00,
2013-03-21 10:52:00,32.0,31.0,-100.00,South,180,0.0,0.0,97,0.00,,,0.44,1.000000,,2013-03-21 14:52:00,
2013-03-21 11:03:00,32.0,31.0,-100.00,South,180,0.0,0.0,97,0.00,,,0.44,1.000000,,2013-03-21 15:03:00,
2013-03-21 11:10:00,32.0,31.0,-100.00,North,350,0.0,0.0,96,0.00,,,0.40,3.000000,,2013-03-21 15:10:00,
2013-03-21 11:33:00,32.0,31.0,-100.00,North,350,0.0,0.0,96,0.00,,,0.40,3.000000,,2013-03-21 15:33:00,
2013-03-21 11:43:00,32.0,31.0,-100.00,North,350,0.0,0.0,96,0.00,,,0.40,3.000000,,2013-03-21 15:43:00,
2013-03-21 11:53:00,32.0,31.0,-100.00,North,350,0.0,0.0,96,0.00,,,0.40,3.000000,,2013-03-21 15:53:00,
2013-03-21 12:03:00,32.0,31.0,-100.00,North,350,0.0,0.0,96,0.00,,,0.40,3.000000,,2013-03-21 16:03:00,
2013-03-21 12:10:00,34.0,33.0,-100.00,NNW,329,0.0,0.0,95,0.00,,,0.33,12.000000,,2013-03-21 16:10:00,
2013-03-21 12:33:00,34.0,33.0,-100.00,NNW,329,0.0,0.0,95,0.00,,,0.33,12.000000,,2013-03-21 16:33:00,
2013-03-21 12:42:00,34.0,33.0,-100.00,NNW,329,0.0,0.0,95,0.00,,,0.33,12.000000,,2013-03-21 16:42:00,
2013-03-21 12:53:00,34.0,33.0,-100.00,NNW,329,0.0,0.0,95,0.00,,,0.33,12.000000,,2013-03-21 16:53:00,
2013-03-21 13:02:00,34.0,33.0,-100.00,NNW,329,0.0,0.0,95,0.00,,,0.33,12.000000,,2013-03-21 17:02:00,
2013-03-21 13:10:00,36.0,34.0,-100.00,South,181,0.0,1.0,91,0.00,,,0.24,20.000000,,2013-03-21 17:10:00,
2013-03-21 13:33:00,36.0,34.0,-100.00,South,181,0.0,1.0,91,0.00,,,0.24,20.000000,,2013-03-21 17:33:00,
2013-03-21 13:43:00,36.0,34.0,-100.00,South,181,0.0,1.0,91,0.00,,,0.24,20.000000,,2013-03-21 17:43:00,
2013-03-21 13:53:00,36.0,34.0,-100.00,South,181,0.0,1.0,91,0.00,,,0.24,20.000000,,2013-03-21 17:53:00,
2013-03-21 14:02:00,36.0,34.0,-100.00,South,181,0.0,1.0,91,0.00,,,0.24,20.000000,,2013-03-21 18:02:00,
2013-03-21 14:10:00,37.0,34.0,-100.00,SSE,155,1.0,3.0,87,0.00,,,0.23,73.000000,,2013-03-21 18:10:00,
2013-03-21 14:43:00,37.0,34.0,-100.00,SSE,155,1.0,3.0,87,0.00,,,0.23,73.000000,,2013-03-21 18:43:00,
2013-03-21 14:52:00,37.0,34.0,-100.00,SSE,155,1.0,3.0,87,0.00,,,0.23,73.000000,,2013-03-21 18:52:00,
2013-03-21 15:02:00,37.0,34.0,-100.00,SSE,155,1.0,3.0,87,0.00,,,0.23,73.000000,,2013-03-21 19:02:00,
2013-03-21 15:10:00,39.0,34.0,-100.00,SSW,210,0.0,3.0,81,0.00,,,0.22,230.000000,,2013-03-21 19:10:00,
2013-03-21 15:43:00,39.0,34.0,-100.00,SSW,210,0.0,3.0,81,0.00,,,0.22,230.000000,,2013-03-21 19:43:00,
2013-03-21 15:52:00,39.0,34.0,-100.00,SSW,210,0.0,3.0,81,0.00,,,0.22,230.000000,,2013-03-21 19:52:00,
2013-03-21 16:02:00,39.0,34.0,-100.00,SSW,210,0.0,3.0,81,0.00,,,0.22,230.000000,,2013-03-21 20:02:00,
2013-03-21 16:10:00,38.0,31.0,-100.00,South,187,2.0,5.0,75,0.12,,,0.28,392.000000,,2013-03-21 20:10:00,
2013-03-21 16:42:00,38.0,31.0,-100.00,South,187,2.0,5.0,75,0.12,,,0.28,392.000000,,2013-03-21 20:42:00,
2013-03-21 16:53:00,38.0,31.0,-100.00,South,187,2.0,5.0,75,0.12,,,0.28,392.000000,,2013-03-21 20:53:00,
2013-03-21 17:02:00,38.0,31.0,-100.00,South,187,2.0,5.0,75,0.12,,,0.28,392.000000,,2013-03-21 21:02:00,
2013-03-21 17:10:00,36.0,33.0,-100.00,SE,139,1.0,28.0,90,0.05,,,0.32,161.000000,,2013-03-21 21:10:00,
2013-03-21 17:43:00,36.0,33.0,-100.00,SE,139,1.0,28.0,90,0.05,,,0.32,161.000000,,2013-03-21 21:43:00,
2013-03-21 17:53:00,36.0,33.0,-100.00,SE,139,1.0,28.0,90,0.05,,,0.32,161.000000,,2013-03-21 21:53:00,
2013-03-21 18:02:00,36.0,33.0,-100.00,SE,139,1.0,28.0,90,0.05,,,0.32,161.000000,,2013-03-21 22:02:00,
2013-03-21 18:10:00,35.0,33.0,-100.00,NE,37,1.0,10.0,91,0.00,,,0.29,144.000000,,2013-03-21 22:10:00,
2013-03-21 18:33:00,35.0,33.0,-100.00,NE,37,1.0,10.0,91,0.00,,,0.29,144.000000,,2013-03-21 22:33:00,
2013-03-21 18:43:00,35.0,33.0,-100.00,NE,37,1.0,10.0,91,0.00,,,0.29,144.000000,,2013-03-21 22:43:00,
2013-03-21 18:52:00,35.0,33.0,-100.00,NE,37,1.0,10.0,91,0.00,,,0.29,144.000000,,2013-03-21 22:52:00,
2013-03-21 19:02:00,35.0,33.0,-100.00,NE,37,1.0,10.0,91,0.00,,,0.29,144.000000,,2013-03-21 23:02:00,
2013-03-21 19:10:00,37.0,34.0,-100.00,SSE,157,2.0,6.0,87,0.09,,,0.32,240.000000,,2013-03-21 23:10:00,
2013-03-21 19:33:00,37.0,34.0,-100.00,SSE,157,2.0,6.0,87,0.09,,,0.32,240.000000,,2013-03-21 23:33:00,
2013-03-21 19:43:00,37.0,34.0,-100.00,SSE,157,2.0,6.0,87,0.09,,,0.32,240.000000,,2013-03-21 23:43:00,
2013-03-21 19:53:00,37.0,34.0,-100.00,SSE,157,2.0,6.0,87,0.09,,,0.32,240.000000,,2013-03-21 23:53:00,
2013-03-21 20:02:00,37.0,34.0,-100.00,SSE,157,2.0,6.0,87,0.09,,,0.32,240.000000,,2013-03-22 00:02:00,
2013-03-21 21:10:00,33.0,31.0,-100.00,South,169,3.0,7.0,93,-99.99,,,0.40,29.000000,,2013-03-22 01:10:00,
2013-03-21 21:43:00,33.0,31.0,-100.00,South,169,3.0,7.0,93,-99.99,,,0.40,29.000000,,2013-03-22 01:43:00,
2013-03-21 21:53:00,33.0,31.0,-100.00,South,169,3.0,7.0,93,-99.99,,,0.40,29.000000,,2013-03-22 01:53:00,
2013-03-21 22:02:00,33.0,31.0,-100.00,South,169,3.0,7.0,93,-99.99,,,0.40,29.000000,,2013-03-22 02:02:00,
2013-03-21 22:10:00,33.0,31.0,-100.00,SSW,208,2.0,8.0,94,0.00,,,0.38,13.000000,,2013-03-22 02:10:00,
2013-03-21 22:43:00,33.0,31.0,-100.00,SSW,208,2.0,8.0,94,0.00,,,0.38,13.000000,,2013-03-22 02:43:00,
2013-03-21 22:52:00,33.0,31.0,-100.00,SSW,208,2.0,8.0,94,0.00,,,0.38,13.000000,,2013-03-22 02:52:00,
2013-03-21 23:02:00,33.0,31.0,-100.00,SSW,208,2.0,8.0,94,0.00,,,0.38,13.000000,,2013-03-22 03:02:00,
2013-03-21 23:10:00,33.0,31.0,-100.00,SSE,149,1.0,6.0,94,0.00,,,0.36,2.000000,,2013-03-22 03:10:00,
2013-03-21 23:33:00,33.0,31.0,-100.00,SSE,149,1.0,6.0,94,0.00,,,0.36,2.000000,,2013-03-22 03:33:00,
2013-03-21 23:43:00,33.0,31.0,-100.00,SSE,149,1.0,6.0,94,0.00,,,0.36,2.000000,,2013-03-22 03:43:00,
2013-03-21 23:53:00,33.0,31.0,-100.00,SSE,149,1.0,6.0,94,0.00,,,0.36,2.000000,,2013-03-22 03:53:00,